CW9461 Weather Reports


Display with metric or nautical units.
time (UTC)temp
F
wind
direction
speed
MPH
gust
MPH
rain 1hr
in
rain 24hr
in
rain mn
in
humidity
%
barometer
mb
20260503232105 65 236 6.0 12.0 0.00 0.00 0.00 58 1002.7
20260503231106 65 229 3.0 9.0 0.00 0.00 0.00 57 1002.7
20260503225605 65 191 5.0 10.0 0.00 0.00 0.00 57 1002.7
20260503225104 65 225 5.0 15.0 0.00 0.00 0.00 56 1002.7
20260503224605 66 230 4.0 7.0 0.00 0.00 0.00 56 1002.7
20260503223105 65 178 2.0 10.0 0.00 0.00 0.00 58 1002.7
20260503222105 66 232 5.0 10.0 0.00 0.00 0.00 57 1003.0
20260503221605 66 219 2.0 6.0 0.00 0.00 0.00 57 1003.0
20260503221106 66 335 3.0 7.0 0.00 0.00 0.00 57 1003.0
20260503220605 65 192 3.0 8.0 0.00 0.00 0.00 57 1003.0
20260503220105 65 233 4.0 12.0 0.00 0.00 0.00 58 1003.0
20260503215605 65 230 5.0 10.0 0.00 0.00 0.00 58 1003.0
20260503215105 65 251 4.0 10.0 0.00 0.00 0.00 57 1003.0
20260503214606 65 216 4.0 8.0 0.00 0.00 0.00 56 1003.4
20260503213106 65 198 3.0 9.0 0.00 0.00 0.00 57 1003.1
20260503212606 65 251 4.0 8.0 0.00 0.00 0.00 56 1003.1
20260503212105 66 197 3.0 8.0 0.00 0.00 0.00 56 1003.0
20260503211604 66 161 3.0 8.0 0.00 0.00 0.00 57 1003.0
20260503211105 65 182 3.0 8.0 0.00 0.00 0.00 59 1003.0
20260503210604 64 228 4.0 9.0 0.00 0.00 0.00 59 1003.0
20260503210105 64 326 3.0 9.0 0.00 0.00 0.00 58 1003.0
20260503205605 65 240 3.0 9.0 0.00 0.00 0.00 57 1003.0
20260503205104 66 227 3.0 9.0 0.00 0.00 0.00 56 1003.0
20260503204606 66 153 5.0 8.0 0.00 0.00 0.00 56 1003.0
20260503204105 66 157 3.0 8.0 0.00 0.00 0.00 56 1003.0
20260503203605 66 275 3.0 12.0 0.00 0.00 0.00 56 1003.0
20260503203105 66 195 3.0 12.0 0.00 0.00 0.00 56 1003.0
20260503202605 66 146 2.0 6.0 0.00 0.00 0.00 56 1003.0
20260503202105 66 212 3.0 8.0 0.00 0.00 0.00 54 1003.0
20260503201605 67 223 3.0 10.0 0.00 0.00 0.00 55 1003.0
20260503201104 67 152 2.0 10.0 0.00 0.00 0.00 56 1003.0
20260503200604 66 138 3.0 8.0 0.00 0.00 0.00 56 1003.1
20260503200105 66 216 3.0 8.0 0.00 0.00 0.00 57 1003.1
20260503195604 65 215 3.0 7.0 0.00 0.00 0.00 59 1003.4
20260503194606 64 238 3.0 8.0 0.00 0.00 0.00 61 1003.4
20260503194105 64 214 4.0 9.0 0.00 0.00 0.00 62 1003.4
20260503193604 63 244 3.0 8.0 0.00 0.00 0.00 63 1003.4
20260503193105 63 257 2.0 12.0 0.00 0.00 0.00 64 1003.7
20260503192605 63 223 5.0 8.0 0.00 0.00 0.00 65 1003.7
20260503192105 62 262 2.0 7.0 0.00 0.00 0.00 68 1003.7
20260503191606 61 146 2.0 5.0 0.00 0.00 0.00 69 1003.7
20260503190105 60 220 3.0 7.0 0.00 0.00 0.00 70 1004.0
20260503185605 60 241 5.0 8.0 0.00 0.00 0.00 70 1003.8
20260503184605 60 222 3.0 8.0 0.00 0.00 0.00 70 1004.0
20260503184104 60 229 3.0 7.0 0.00 0.00 0.00 70 1004.0
20260503183604 60 235 4.0 8.0 0.00 0.00 0.00 70 1003.7
20260503183104 60 224 6.0 9.0 0.00 0.00 0.00 69 1003.7
20260503182605 60 246 1.0 9.0 0.00 0.00 0.00 68 1003.7
20260503182105 61 238 4.0 9.0 0.00 0.00 0.00 67 1003.7
20260503181605 62 237 3.0 6.0 0.00 0.00 0.00 67 1003.7
20260503180604 61 262 2.0 6.0 0.00 0.00 0.00 67 1003.4
20260503180105 61 239 2.0 6.0 0.00 0.00 0.00 67 1003.7
20260503175105 61 244 2.0 5.0 0.00 0.00 0.00 67 1003.4
20260503173604 61 237 3.0 8.0 0.00 0.00 0.00 65 1003.4
20260503173105 62 251 5.0 10.0 0.00 0.00 0.00 64 1003.4
20260503172604 63 252 3.0 8.0 0.00 0.00 0.00 63 1003.4
20260503171605 63 142 2.0 7.0 0.00 0.00 0.00 64 1003.0
20260503171104 63 204 2.0 6.0 0.00 0.00 0.00 64 1003.4
20260503170604 63 243 2.0 5.0 0.00 0.00 0.00 66 1003.1
20260503170105 62 113 2.0 8.0 0.00 0.00 0.00 67 1003.1
20260503160105 58 192 1.0 8.0 0.00 0.00 0.00 74 1003.3
20260503150606 56 215 2.0 3.0 0.00 0.00 0.00 79 1003.0
20260503150105 56 202 0.0 5.0 0.00 0.00 0.00 79 1002.8
20260503140105 54 137 1.0 5.0 0.00 0.00 0.00 84 1002.4
20260503131104 53 155 0.0 2.0 0.00 0.00 0.00 83 1001.7
20260503130604 53 247 0.0 0.0 0.00 0.00 0.00 82 1001.7
20260503130104 53 157 0.0 1.0 0.00 0.00 0.00 82 1001.7
20260503120104 54 148 1.0 3.0 0.00 0.00 0.00 82 1001.4
20260503110604 53 156 1.0 3.0 0.00 0.00 0.00 83 1001.4
20260503110105 53 158 2.0 5.0 0.00 0.00 0.00 83 1001.7
20260503100104 54 188 1.0 3.0 0.00 0.00 0.00 82 1001.6
20260503090104 55 202 1.0 3.0 0.00 0.00 0.00 82 1001.7
20260503081104 55 188 2.0 8.0 0.00 0.00 0.00 82 1002.0
20260503080604 55 157 1.0 3.0 0.00 0.00 0.00 82 1002.0
20260503080104 55 189 1.0 3.0 0.00 0.00 0.00 81 1002.0
20260503072604 55 202 1.0 2.0 0.00 0.00 0.00 81 1002.4
20260503072104 55 225 1.0 3.0 0.00 0.00 0.00 81 1002.4
20260503071605 55 202 1.0 5.0 0.00 0.00 0.00 81 1002.4
20260503071104 55 145 1.0 3.0 0.00 0.00 0.00 81 1002.4
20260503070605 55 187 1.0 3.0 0.00 0.00 0.00 81 1002.4
20260503070105 55 156 1.0 5.0 0.00 0.00 0.00 81 1002.4
20260503060106 55 202 1.0 5.0 0.00 0.00 0.00 81 1002.7
20260503055105 55 225 1.0 2.0 0.00 0.00 0.00 81 1002.7
20260503054606 55 213 1.0 2.0 0.00 0.00 0.00 81 1002.8
20260503053605 55 227 2.0 3.0 0.00 0.00 0.00 81 1002.7
20260503053106 55 225 1.0 5.0 0.00 0.00 0.00 81 1002.7
20260503052105 55 228 2.0 3.0 0.00 0.00 0.00 81 1002.8
20260503051606 55 202 0.0 2.0 0.00 0.00 0.00 81 1003.0
20260503051106 55 149 2.0 3.0 0.00 0.00 0.00 80 1003.0
20260503050606 55 229 3.0 6.0 0.00 0.00 0.00 80 1003.0
20260503050106 55 233 1.0 5.0 0.00 0.00 0.00 80 1002.8
20260503045605 55 225 1.0 5.0 0.00 0.00 0.00 80 1002.8
20260503045105 55 225 2.0 5.0 0.00 0.00 0.00 80 1002.7
20260503044606 55 225 1.0 6.0 0.00 0.00 0.00 80 1002.7
20260503044105 56 277 2.0 3.0 0.00 0.00 0.00 80 1002.7
20260503043106 56 250 1.0 3.0 0.00 0.00 0.00 80 1002.7
20260503042606 56 247 1.0 2.0 0.00 0.00 0.00 79 1002.6
20260503042105 56 142 1.0 3.0 0.00 0.00 0.00 79 1002.4
20260503041606 56 166 2.0 5.0 0.00 0.00 0.00 79 1002.4
20260503040605 56 212 3.0 6.0 0.00 0.00 0.00 80 1002.4
20260503040106 56 263 2.0 5.0 0.00 0.00 0.00 80 1002.4
20260503035606 56 275 2.0 3.0 0.00 0.00 0.00 80 1002.4
20260503035105 56 218 1.0 3.0 0.00 0.00 0.00 80 1002.4
20260503034605 56 94 1.0 5.0 0.00 0.00 0.00 80 1002.4
20260503033606 56 242 1.0 3.0 0.00 0.00 0.00 80 1002.3
20260503033105 56 202 2.0 5.0 0.00 0.00 0.00 80 1002.0
20260503032606 56 182 1.0 5.0 0.00 0.00 0.00 80 1002.0
20260503032106 56 107 0.0 3.0 0.00 0.00 0.00 79 1002.0
20260503031105 56 222 1.0 3.0 0.00 0.00 0.00 78 1001.7
20260503030106 57 158 1.0 3.0 0.00 0.00 0.00 77 1001.7
20260503025605 57 204 2.0 6.0 0.00 0.00 0.00 76 1001.7
20260503025105 57 296 0.0 2.0 0.00 0.00 0.00 76 1001.7
20260503024605 57 170 0.0 5.0 0.00 0.00 0.00 75 1001.7
20260503024105 58 150 2.0 5.0 0.00 0.00 0.00 74 1001.7
20260503023605 58 267 2.0 6.0 0.00 0.00 0.00 74 1001.7
20260503023105 58 226 1.0 5.0 0.00 0.00 0.00 74 1001.7
20260503022606 58 206 1.0 3.0 0.00 0.00 0.00 73 1001.7
20260503022106 58 174 2.0 3.0 0.00 0.00 0.00 73 1001.7
20260503021605 59 225 1.0 5.0 0.00 0.00 0.00 72 1001.7
20260503021105 59 168 2.0 5.0 0.00 0.00 0.00 72 1001.7
20260503020607 59 154 2.0 8.0 0.00 0.00 0.00 72 1001.5
20260503015605 60 225 0.0 2.0 0.00 0.00 0.00 70 1001.7
20260503015105 60 117 3.0 6.0 0.00 0.00 0.00 70 1001.7
20260503014605 60 202 2.0 7.0 0.00 0.00 0.00 69 1001.7
20260503013105 62 238 3.0 8.0 0.00 0.00 0.00 67 1001.7
20260503012606 62 202 1.0 3.0 0.00 0.00 0.00 66 1001.7
20260503012105 62 192 0.0 6.0 0.00 0.00 0.00 65 1001.7
20260503010605 63 146 3.0 6.0 0.00 0.00 0.00 63 1001.7
20260503005605 64 257 2.0 6.0 0.00 0.00 0.00 62 1001.5
20260503005106 64 136 2.0 6.0 0.00 0.00 0.00 62 1001.7
20260503004605 64 189 2.0 6.0 0.00 0.00 0.00 61 1001.5
20260503004105 65 161 2.0 6.0 0.00 0.00 0.00 61 1001.4
20260503003605 65 175 2.0 5.0 0.00 0.00 0.00 61 1001.6
20260503003105 65 169 1.0 5.0 0.00 0.00 0.00 60 1001.7
20260503002605 65 211 2.0 5.0 0.00 0.00 0.00 60 1001.7
20260503002105 65 286 2.0 8.0 0.00 0.00 0.00 60 1001.7
20260503001605 65 196 2.0 5.0 0.00 0.00 0.00 60 1001.7
20260503001105 65 164 2.0 5.0 0.00 0.00 0.00 60 1001.7
20260503000605 65 168 3.0 6.0 0.00 0.00 0.00 60 1001.7
20260503000106 65 230 3.0 8.0 0.00 0.00 0.00 60 1001.7
20260502235604 65 242 3.0 7.0 0.00 0.00 0.00 59 1001.7
20260502235106 66 228 3.0 7.0 0.00 0.00 0.00 58 1001.7
20260502234105 66 160 1.0 6.0 0.00 0.00 0.00 59 1001.7
20260502233605 66 218 2.0 9.0 0.00 0.00 0.00 59 1001.7
20260502233105 66 235 3.0 8.0 0.00 0.00 0.00 60 1001.9
20260502232605 66 142 2.0 7.0 0.00 0.00 0.00 59 1001.8